Location: Borowce
(50.8255°N, 19.6209°E)
Time: 07:23:16
(UTC+00:00)

Cosmos 1605 Rocket - Pass Details

Date: 19 May 2025
Orbit: 944 x 1005 km, 82.9° (Epoch: 16 June)

Event Time Altitude Azimuth Distance (km) Brightness Sun altitude
Rises 21:38:25 0° 351° (N) 3,732 8.8 -18.0°
Reaches altitude 10° 21:41:00 10° 354° (N) 2,772 7.6 -18.1°
Maximum altitude 21:47:20 68° 77° (ENE) 1,058 4.1 -18.3°
Enters shadow 21:50:40 29° 153° (SSE) 1,705 4.7 -18.4°
